Weather History for Eagle River, WI

Change the Weather History Date:

Monday, March 17, 2014

  Actual Average Record
Temperature  
Mean Temperature 16 °F -  
Max Temperature 21 °F 36 °F 77 °F (2012)
Min Temperature 10 °F 7 °F -13 °F (2013)
Degree Days  
Heating Degree Days 50    
Moisture  
Dew Point 8 °F    
Average Humidity 70    
Maximum Humidity 86    
Minimum Humidity 43    
Precipitation  
Precipitation 0.00 in - - ()
Sea Level Pressure  
Sea Level Pressure 29.80 in    
Wind  
Wind Speed 6 mph (SSE)    
Max Wind Speed 15 mph    
Max Gust Speed 21 mph    
Visibility 7 miles    
Events Snow    
Averages and records for this station are not official NWS values.
T = Trace of Precipitation, MM = Missing Value Source: NWS Daily Summary

Daily Weather History Graph

Daily Weather History Graph

Search for Another Location

Airport:

Trip Planner

Search our weather history database for the weather conditions in past years. The results will help you decide how hot, cold, wet, or windy it might be!

Date:

Astronomy

Mar. 17, 2014 Rise Set
Actual Time 7:05 AM CDT 7:05 PM CDT
Civil Twilight 6:36 AM CDT 7:35 PM CDT
Nautical Twilight 6:01 AM CDT 8:10 PM CDT
Astronomical Twilight 5:25 AM CDT 8:46 PM CDT
Moon 8:28 PM CDT (3/17) 7:17 AM CDT (3/17)
Length of Visible Light 12h 59m
Length of Day
11h 59m
Full, 99% of the Moon is Illuminated
Mar 17
Full
Mar 23
Last Quarter
Mar 30
New
Apr 7
First Quarter
Apr 15
Full

Hourly Weather History & Observations

Time (CDT) Temp. Windchill Dew Point Humidity Pressure Visibility Wind Dir Wind Speed Gust Speed Precip Events Conditions
12:15 AM 11.3 °F - -7.6 °F 43% 30.02 in 10.0 mi Calm Calm - N/A   Clear
12:35 AM 10.9 °F - -6.9 °F 45% 30.02 in 10.0 mi Calm Calm - N/A   Clear
12:55 AM 11.1 °F - -6.0 °F 46% 30.01 in 10.0 mi Calm Calm - N/A   Mostly Cloudy
1:15 AM 11.3 °F 3.3 °F -5.6 °F 47% 30.00 in 10.0 mi South 4.6 mph - N/A   Overcast
1:35 AM 10.9 °F 2.9 °F -5.1 °F 49% 29.99 in 10.0 mi South 4.6 mph - N/A   Overcast
1:55 AM 10.6 °F 2.5 °F -4.9 °F 50% 29.98 in 10.0 mi South 4.6 mph - N/A   Scattered Clouds
2:15 AM 10.4 °F 2.2 °F -4.5 °F 51% 29.98 in 10.0 mi South 4.6 mph - N/A   Scattered Clouds
2:35 AM 10.8 °F 2.7 °F -4.0 °F 52% 29.97 in 10.0 mi SSE 4.6 mph - N/A   Mostly Cloudy
2:55 AM 11.1 °F 1.7 °F -4.0 °F 51% 29.96 in 10.0 mi SSE 5.8 mph - N/A   Overcast
3:15 AM 11.3 °F 1.9 °F -3.5 °F 52% 29.94 in 10.0 mi South 5.8 mph - N/A   Overcast
3:35 AM 11.5 °F 2.1 °F -2.9 °F 52% 29.93 in 10.0 mi South 5.8 mph - N/A   Overcast
3:55 AM 11.7 °F 5.5 °F -1.7 °F 55% 29.92 in 10.0 mi South 3.5 mph - N/A   Overcast
4:15 AM 11.5 °F -1.1 °F -0.9 °F 57% 29.91 in 10.0 mi South 9.2 mph - N/A   Overcast
4:35 AM 11.3 °F 0.7 °F -0.4 °F 59% 29.91 in 10.0 mi South 6.9 mph - N/A   Overcast
4:55 AM 11.5 °F 3.5 °F 0.5 °F 61% 29.89 in 10.0 mi South 4.6 mph - N/A   Overcast
5:15 AM 11.7 °F 3.7 °F 1.2 °F 63% 29.88 in 10.0 mi South 4.6 mph - N/A   Overcast
5:35 AM 11.7 °F 3.7 °F 1.9 °F 65% 29.88 in 10.0 mi SSE 4.6 mph - N/A   Overcast
5:55 AM 11.8 °F 5.7 °F 2.7 °F 67% 29.87 in 10.0 mi South 3.5 mph - N/A   Overcast
6:15 AM 11.8 °F 5.7 °F 3.0 °F 68% 29.87 in 10.0 mi SSE 3.5 mph - N/A   Overcast
6:35 AM 11.8 °F 2.5 °F 3.0 °F 68% 29.86 in 10.0 mi South 5.8 mph - N/A   Overcast
6:55 AM 11.8 °F -0.7 °F 1.8 °F 64% 29.85 in 10.0 mi South 9.2 mph - N/A   Overcast
7:15 AM 11.8 °F 1.3 °F -0.2 °F 58% 29.84 in 10.0 mi South 6.9 mph - N/A   Overcast
7:35 AM 12.0 °F -1.3 °F -1.5 °F 55% 29.84 in 10.0 mi South 10.4 mph - N/A   Overcast
7:55 AM 12.2 °F -0.2 °F -1.3 °F 55% 29.83 in 10.0 mi South 9.2 mph - N/A   Overcast
8:15 AM 12.9 °F -0.2 °F 0.9 °F 59% 29.83 in 10.0 mi South 10.4 mph - N/A   Overcast
8:35 AM - - - N/A% 29.82 in 10.0 mi South 9.2 mph - N/A   Overcast
8:55 AM 14.2 °F 0.7 °F 3.7 °F 63% 29.81 in 10.0 mi South 11.5 mph - N/A   Overcast
9:15 AM 14.7 °F 0.7 °F 4.6 °F 64% 29.81 in 10.0 mi South 12.7 mph 16.1 mph N/A   Overcast
9:35 AM 14.9 °F 0.3 °F 5.7 °F 67% 29.79 in 7.0 mi South 13.8 mph 17.3 mph N/A Snow Light Snow
9:55 AM 15.6 °F 2.5 °F 5.9 °F 66% 29.78 in 10.0 mi South 11.5 mph 18.4 mph N/A   Overcast
10:15 AM 16.2 °F 1.3 °F 5.9 °F 64% 29.78 in 10.0 mi South 15.0 mph 18.4 mph N/A   Overcast
10:35 AM 16.3 °F 4.1 °F 6.6 °F 66% 29.77 in 7.0 mi South 10.4 mph 17.3 mph N/A Snow Light Snow
10:55 AM 17.6 °F 5.7 °F 7.7 °F 65% 29.76 in 10.0 mi South 10.4 mph 18.4 mph N/A   Overcast
11:15 AM 17.2 °F 6.0 °F 9.7 °F 72% 29.76 in 2.0 mi SSE 9.2 mph - N/A Snow Light Snow
11:35 AM 17.6 °F 7.3 °F 10.4 °F 73% 29.76 in 4.0 mi South 8.1 mph 17.3 mph N/A Snow Light Snow
11:55 AM 17.6 °F 3.2 °F 10.2 °F 73% 29.74 in 7.0 mi South 15.0 mph 20.7 mph N/A Snow Light Snow
12:15 PM 18.0 °F 8.7 °F 11.3 °F 75% 29.74 in 2.0 mi SSE 6.9 mph - N/A Snow Light Snow
12:35 PM 18.3 °F 7.3 °F 11.7 °F 75% 29.73 in 5.0 mi SSE 9.2 mph 16.1 mph N/A Snow Light Snow
12:55 PM 18.5 °F 7.5 °F 11.5 °F 74% 29.73 in 2.0 mi South 9.2 mph 18.4 mph N/A Snow Light Snow
1:15 PM 18.5 °F 6.1 °F 11.8 °F 75% 29.72 in 2.0 mi South 11.5 mph 16.1 mph N/A Snow Light Snow
1:35 PM 19.6 °F 8.1 °F 12.4 °F 74% 29.72 in 1.8 mi South 10.4 mph - N/A Snow Light Snow
1:55 PM 19.8 °F 8.3 °F 13.1 °F 75% 29.71 in 1.5 mi South 10.4 mph - N/A Snow Light Snow
2:15 PM 20.3 °F 10.6 °F 14.0 °F 77% 29.71 in 2.0 mi SSE 8.1 mph - N/A Snow Light Snow
2:35 PM 19.9 °F 10.1 °F 14.5 °F 80% 29.69 in 0.8 mi South 8.1 mph - N/A Snow Light Snow
2:55 PM 20.1 °F 10.3 °F 14.9 °F 80% 29.69 in 1.0 mi SSE 8.1 mph - N/A Snow Light Snow
3:15 PM 20.3 °F 9.8 °F 15.4 °F 81% 29.69 in 1.0 mi South 9.2 mph - N/A Snow Light Snow
3:35 PM 20.5 °F 10.8 °F 15.6 °F 81% 29.69 in 0.8 mi South 8.1 mph 16.1 mph N/A Snow Light Snow
3:55 PM 21.2 °F 11.7 °F 16.0 °F 80% 29.69 in 1.8 mi SSE 8.1 mph - N/A Snow Light Snow
4:15 PM 21.2 °F 10.9 °F 16.3 °F 82% 29.68 in 1.0 mi SSE 9.2 mph - N/A Snow Light Snow
4:35 PM 21.4 °F 13.8 °F 16.9 °F 83% 29.68 in 1.0 mi South 5.8 mph - N/A Snow Light Snow
4:55 PM 21.2 °F 11.7 °F 16.7 °F 83% 29.68 in 1.2 mi SSE 8.1 mph - N/A Snow Light Snow
5:15 PM 21.6 °F 10.6 °F 16.7 °F 82% 29.69 in 0.8 mi SSE 10.4 mph - N/A Snow Light Snow
5:35 PM 21.6 °F 12.1 °F 16.7 °F 82% 29.69 in 1.0 mi South 8.1 mph - N/A Snow Light Snow
5:55 PM 21.6 °F 12.1 °F 17.2 °F 83% 29.68 in 0.8 mi South 8.1 mph - N/A Snow Light Snow
6:15 PM 21.6 °F 15.3 °F 17.4 °F 84% 29.68 in 1.5 mi South 4.6 mph - N/A Snow Light Snow
6:35 PM 21.6 °F 15.3 °F 17.1 °F 83% 29.69 in 5.0 mi South 4.6 mph - N/A Snow Light Snow
7:32 PM 21.2 °F 10.9 °F 15.8 °F 80% 29.68 in 5.0 mi SSE 9.2 mph - N/A Snow Light Snow
8:12 PM 21.2 °F 13.6 °F 15.8 °F 80% 29.70 in 10.0 mi SSE 5.8 mph - N/A   Overcast
8:32 PM 21.2 °F - 15.8 °F 80% 29.71 in 10.0 mi Calm Calm - N/A   Overcast
8:52 PM 21.2 °F 16.4 °F 15.8 °F 80% 29.72 in 10.0 mi SE 3.5 mph - N/A   Overcast
9:12 PM 21.2 °F 16.4 °F 15.8 °F 80% 29.72 in 10.0 mi SE 3.5 mph - N/A   Overcast
9:32 PM 19.4 °F 14.3 °F 15.8 °F 86% 29.73 in 10.0 mi SE 3.5 mph - N/A   Overcast
9:52 PM 19.4 °F - 15.8 °F 86% 29.74 in 10.0 mi Calm Calm - N/A   Overcast
10:12 PM 19.4 °F - 15.8 °F 86% 29.75 in 10.0 mi Calm Calm - N/A   Overcast
10:32 PM 19.4 °F - 15.8 °F 86% 29.76 in 10.0 mi Calm Calm - N/A   Overcast
10:52 PM 19.4 °F 14.3 °F 15.8 °F 86% 29.76 in 10.0 mi SE 3.5 mph - N/A   Overcast
11:12 PM 19.4 °F 12.8 °F 15.8 °F 86% 29.76 in 10.0 mi SE 4.6 mph - N/A   Overcast
11:32 PM 19.4 °F 12.8 °F 15.8 °F 86% 29.76 in 10.0 mi SE 4.6 mph - N/A   Overcast
11:52 PM 19.4 °F 11.5 °F 14.0 °F 80% 29.76 in 10.0 mi ESE 5.8 mph - N/A   Overcast